Regional Weather Roundup
Issued by NWS

Home | Current Version | Previous Version | Text Only | Print | Product List | Glossary On
Versions: 1 2 3 4 5 6 7 8 9 10 11 12 13 14 15 16 17 18 19 20 21 22 23 24 25 26 27 28 29 30 31 32 33 34 35 36 37 38 39 40 41 42 43 44 45 46 47 48 49 50
000
ASUS42 KFFC 281410
RWRGA
WEATHER ROUNDUP FOR GEORGIA
NATIONAL WEATHER SERVICE PEACHTREE CITY GA
1000 AM EDT WED SEP 28 2016

NOTE: "FAIR" INDICATES FEW OR NO CLOUDS BELOW 12,000 FEET WITH NO
SIGNIFICANT WEATHER AND/OR OBSTRUCTIONS TO VISIBILITY.

* = USE WITH CAUTION. THE STATIONS MARKED WITH AN ASTERISK MAY NOT
REPORT WEATHER SUCH AS PRECIPITATION, FOG, OR THUNDER AND ARE NOT
QUALITY CONTROLLED BY NWS.

THE REMARK "TC" DENOTES TEMPERATURE READING IN DEGREES CELSIUS.

GAZ001>058-281500-
NORTH GEORGIA

CITY           SKY/WX    TMP DP  RH WIND       PRES   REMARKS
ATLANTA        FAIR      71  59  65 NW8       29.97
ATHENS         FAIR      75  70  84 VRB3      29.95R
CHAMBLEE       FAIR      71  61  70 W5        29.97
PEACHTREE CITY FAIR      72  61  68 NW9       29.98
ROME           FAIR      70  55  59 CALM      29.96
WEST ATLANTA   FAIR      70  57  63 NW5       29.97
GAINESVILLE      N/A     72  68  87 SW5       29.98
CARTERSVILLE   FAIR      69  54  58 CALM      29.97


CITY           SKY/WX    TMP DP  RH WIND       PRES   REMARKS
DALTON*        FAIR      66  54  63 CALM      29.97R
LAWRENCEVILLE* SUNNY     72  64  78 W6        29.95
MARIETTA       MOSUNNY   69  57  66 W6        29.97
KENNESAW*      SUNNY     70  52  52 W6        29.96
CANTON*        FAIR      68  57  68 CALM      29.99R
BLAIRSVILLE*     N/A    N/A N/A N/A MISG      29.99S
$$

GAZ059>098-102>109-281500-
CENTRAL GEORGIA

CITY           SKY/WX    TMP DP  RH WIND       PRES   REMARKS
AUGUSTA-BUSH   FAIR      78  69  73 SW3       29.93
AUGUSTA-DANIEL FAIR      78  67  68 SW5       29.95
COLUMBUS       FAIR      77  68  73 CALM      29.96
MACON          FAIR      79  68  69 NW3       29.95
ROBINS AFB     FAIR      77  69  76 VRB1      29.95


CITY           SKY/WX    TMP DP  RH WIND       PRES   REMARKS
LAGRANGE*      FAIR      77  69  76 CALM      29.97R
MILLEDGEVILLE* FAIR      75  72  88 CALM      29.95R
$$

GAZ099>101-110>166-281500-
SOUTH GEORGIA

CITY           SKY/WX    TMP DP  RH WIND       PRES   REMARKS
SAVANNAH       PTSUNNY   79  71  76 VRB3      29.97
VALDOSTA       FAIR      80  75  84 CALM      29.98
ALMA           FAIR      77  72  84 SW3       29.97
ST SIMONS      FAIR      80  72  76 W5        29.97
FT STEWART     FAIR      77  71  82 CALM      29.95
ALBANY         FAIR      75  71  87 SW3       29.99R
HUNTER AFB     FAIR      81  77  88 SW6       29.95
MOODY AFB      FAIR      82  72  73 SW7       29.97
BRUNSWICK      FAIR      82  75  78 W3        29.98R


CITY           SKY/WX    TMP DP  RH WIND       PRES   REMARKS
BAINBRIDGE*    FAIR      79  73  83 CALM      29.98R
MOULTRIE*      FAIR      77  72  83 SW3       29.99R
VIDALIA*       FAIR      79  73  83 CALM      29.96S
WAYCROSS*      FAIR      81  76  85 W3        29.98R
DOUGLAS*       FAIR      77  70  78 W3        29.99R
$$



USA.gov is the U.S. government's official web portal to all federal, state and local government web resources and services.